DON PEDRO RESERVOIR (DNP)

Elevation: 830' · TUOLUMNE R basin · Operator: Turlock Irrigation District

Provisional data, subject to change.
Query executed Sunday at 21:46:06   clock

Select a sensor type for a plot of data.
Note: Reservoir Flows are daily averages.

Earlier

Date RES ELE    STORAGE    RES CHG    TOC STO    ABV TOC    OUTFLOW    INFLOW    PPT INC   
 FEET   AF   AF   AF   AF   CFS   CFS   INCHES  
01/09/2016 688.19 727975 2444 1690000 -- 162 1702 0.00
01/10/2016 688.55 730425 2143 1690000 -- 163 1398 0.00
01/11/2016 688.90 731652 1534 1690000 -958348 162 780 0.00
01/12/2016 689.25 734110 1843 1690000 -955890 161 1400 0.00
01/13/2016 689.60 736574 1539 1690000 -953426 161 1403 0.00
01/14/2016 689.95 737808 1543 1690000 -952192 161 783 0.00
01/15/2016 690.41 740899 3091 1690000 -949101 161 1720 0.00
01/16/2016 690.82 743378 2479 1690000 -- 161 1411 0.00
01/17/2016 691.23 746484 2795 1690000 -- 161 1726 0.00
01/18/2016 692.07 752097 5299 1690000 -- 231 3061 0.00
01/19/2016 693.31 758996 7214 1690000 -931004 143 3621 0.00
01/20/2016 694.32 765305 6625 1690000 -924695 162 3343 0.00
01/21/2016 694.94 769106 4119 1690000 -920894 169 2085 0.00
01/22/2016 695.50 773558 4134 1690000 -- 162 2406 0.00
01/23/2016 696.97 783154 9593 1690000 -- 162 5000 0.00
01/24/2016 697.96 789596 6440 1690000 -900404 162 3409 0.00
01/25/2016 698.69 794126 4206 1690000 -895874 163 2447 0.00
01/26/2016 699.24 797372 2921 1690000 -892628 160 1796 0.00
01/27/2016 699.73 800628 2930 1690000 -889372 162 1804 0.00
01/28/2016 700.20 803807 2853 1690000 -886193 162 1764 0.00
01/29/2016 700.59 806425 1963 1690000 -- 162 1481 0.00
01/30/2016 701.51 812337 6238 1690000 -- 162 3142 0.00
01/31/2016 702.45 818278 6601 1690000 -871722 162 3157 0.00
02/01/2016 703.18 823584 5306 1690000 -866416 161 2836 0.00
02/02/2016 703.89 828246 3995 1690000 -861754 159 2510 0.00
02/03/2016 704.50 832257 3341 1690000 -857743 161 2183 0.00
02/04/2016 705.12 836281 3352 1690000 -853719 135 2164 0.00
02/05/2016 705.65 839981 3700 -- -- -- -- --
02/06/2016 706.25 844030 4049 -- -- -- -- --
02/07/2016 -- -- -- -- -- -- -- --

Later | Latest

Warning! This data is preliminary and subject to revision.

Show DNP Map | Plot DNP Data | 1 Month DNP Data | Real-Time DNP Data | DNP Info